TOMORROW-S2

Last updated on Mon Sep 16 2024 00:02:03 GMT+0000 (Coordinated Universal Time)

1 60485U 24149T 24258.90625899 .00016655 00000+0 81629-3 0 9993 2 60485 97.4437 334.0100 0003460 28.9646 331.1779 15.18205049 4413
UTC large
Height (km)
Speed (km/s)
/
Latitude / Longitude
Inclination (degrees)
Orbital Period (minutes)
Azimuth
Elevation
Range (km)
Doppler Factor

Next 0 passes for location: London (51.5072 / 0.1276)

Sorry there are no passes over London.